Temp
4 4 4 4 5 4 4 4 4 5 5 5 5 6 6 6 6 6 6 6 7 7 7 7 7 7 7 7 8 8 8 8 8 7 7 7 7 7 8 8 7 7 7 8 8
4 4 4 4 4 4 4 4 4 4 5 5 5 5 5 6 6 6 6 6 7 7 7 7 7 7 7 7 7 7 7 7 7 6 6 6 7 7 7 7 7 7 7 7 7
3 3 3 4 4 4 4 4 4 4 4 4 4 4 5 5 5 6 6 6 7 7 7 7 7 7 7 7 7 7 6 6 6 6 6 6 7 7 7 7 7 7 7 6 7
3 3 3 3 3 3 3 3 4 4 4 4 4 4 4 5 5 5 5 6 6 7 7 7 7 7 6 6 7 7 7 6 6 6 7 6 7 7 7 7 7 6 6 6 6
3 3 3 3 3 3 3 3 3 3 4 4 3 4 4 4 5 5 5 6 6 6 7 7 7 7 6 6 6 6 7 6 6 6 6 6 6 6 7 6 5 5 5 6 6
2 2 3 3 3 3 3 3 3 3 3 3 3 3 3 4 5 5 4 5 5 6 6 6 6 6 6 6 6 6 6 6 6 5 5 5 6 6 6 5 5 6 6 5 5
2 2 2 2 2 2 2 2 2 3 3 3 3 3 4 4 5 4 4 5 5 5 6 6 6 6 6 6 6 5 6 6 6 5 5 5 5 5 6 6 6 6 5 5 5
2 2 1 2 2 2 2 1 2 2 2 3 3 3 5 4 5 4 4 5 5 5 5 5 5 5 6 5 5 5 5 5 4 4 4 4 4 4 4 5 5 5 5 5 4
1 1 1 1 1 1 2 1 1 2 2 3 3 4 5 5 5 5 5 5 5 5 4 4 5 5 5 4 4 4 4 4 4 3 4 3 3 3 4 4 4 4 4 4 4
-0 1 0 0 1 0 1 1 1 2 2 3 3 3 4 4 4 4 4 4 4 4 4 4 4 5 5 4 4 3 2 2 3 3 3 3 3 2 3 3 4 4 3 4 3
1 1 1 2 1 0 1 1 1 1 3 3 3 4 4 3 3 3 3 3 4 4 4 3 3 5 4 2 2 2 2 1 2 2 2 3 3 2 2 2 3 3 3 3 3
2 1 1 1 2 1 0 1 1 1 1 3 2 3 3 2 2 4 4 3 4 3 3 2 2 3 2 1 1 1 1 1 1 2 2 2 2 2 2 2 2 2 2 2 2
1 1 1 1 1 1 0 0 0 -1 -1 3 3 3 4 2 2 4 3 4 3 3 3 1 2 3 2 1 1 1 1 1 1 1 1 1 1 2 2 2 2 2 1 1 1
-0 -0 0 0 -0 1 1 1 0 -2 -2 1 4 3 4 4 3 5 4 3 1 2 2 0 2 2 1 1 1 -0 1 1 1 1 1 0 -1 1 1 1 1 1 1 0 -0
-1 -1 -1 -1 -0 0 0 -0 -1 -2 -4 1 2 2 3 4 3 4 5 3 2 2 2 2 2 2 1 1 1 0 0 0 0 0 0 -1 -1 1 0 0 0 0 -0 -1 -1
-2 -2 -2 -1 -1 -1 -1 -2 -3 -3 -4 1 1 2 3 3 2 2 3 2 2 0 1 1 0 0 1 1 0 -0 -0 -1 -1 -0 -2 -0 -1 0 -0 0 -0 -0 -1 -1 -1
-3 -3 -2 -2 -2 -2 -2 -3 -5 -5 -1 0 1 2 2 2 2 2 2 2 2 0 0 1 1 1 0 0 0 -0 -1 -2 -3 -4 -3 -1 -2 -0 -0 -1 -1 -1 -1 -2 -3
-3 -4 -3 -3 -3 -3 -4 -4 -5 -2 -1 -0 -0 0 1 1 1 0 1 1 1 1 0 0 1 1 1 0 0 0 0 -1 -3 -4 -3 -2 -2 0 -0 -1 -1 -2 -2 -3 -3
-4 -4 -4 -3 -4 -4 -4 -5 -3 -2 -1 -0 -0 -1 -0 0 0 0 0 1 1 1 0 -0 -0 0 0 0 -0 -0 -0 -0 -1 -1 -4 -1 -1 -1 -1 -1 -1 -2 -2 -3 -4
-5 -4 -4 -4 -5 -5 -5 -5 -2 -2 -2 -1 -1 -0 -0 0 -0 -0 -0 1 1 1 0 -0 -0 -0 -0 -1 -1 -1 -1 -1 -2 -4 -4 -2 -2 -2 -2 -2 -2 -2 -3 -3 -4
-6 -6 -4 -4 -5 -6 -6 -5 -2 -2 -3 -2 -1 -1 -1 -0 -0 -0 -0 0 1 1 0 -0 -1 -1 -1 -1 -1 -1 -1 -2 -2 -2 -5 -4 -3 -2 -2 -3 -3 -3 -3 -4 -4
-9 -7 -5 -7 -7 -6 -6 -4 -4 -3 -4 -3 -2 -2 -2 -1 -1 -1 -1 -0 -0 -0 0 -0 -1 -1 -1 -1 -1 -1 -1 -2 -2 -3 -3 -3 -3 -3 -3 -3 -3 -4 -4 -4 -5
-9 -8 -7 -7 -7 -6 -5 -5 -4 -4 -5 -4 -3 -2 -2 -2 -2 -2 -1 -1 -1 -1 -0 -0 -1 -2 -2 -2 -2 -2 -2 -2 -3 -3 -4 -6 -5 -3 -4 -4 -4 -5 -5 -5 -5
-9 -9 -9 -8 -7 -6 -5 -4 -5 -5 -5 -4 -4 -4 -3 -3 -2 -3 -2 -2 -1 -1 -1 -1 -1 -1 -2 -1 -2 -2 -2 -3 -3 -4 -4 -5 -4 -4 -4 -5 -5 -5 -5 -6 -6
-10 -9 -8 -8 -7 -5 -7 -6 -5 -6 -5 -5 -5 -5 -4 -4 -3 -3 -3 -3 -2 -2 -1 -2 -2 -2 -2 -2 -3 -3 -3 -4 -4 -4 -6 -4 -5 -3 -4 -5 -5 -6 -6 -6 -6
-10 -9 -9 -8 -7 -7 -8 -6 -6 -6 -6 -6 -6 -6 -5 -4 -4 -3 -3 -3 -4 -3 -3 -3 -4 -3 -3 -3 -4 -4 -4 -4 -4 -5 -5 -6 -5 -4 -4 -5 -5 -6 -6 -6 -7
-11 -10 -10 -9 -8 -8 -6 -5 -5 -6 -6 -6 -6 -6 -5 -5 -4 -4 -5 -5 -4 -4 -4 -4 -4 -6 -6 -5 -5 -5 -4 -3 -4 -4 -5 -5 -4 -4 -4 -5 -5 -6 -6 -7 -7
Height
3141 3142 3143 3143 3143 3143 3144 3143 3143 3142 3141 3141 3140 3140 3139 3138 3137 3136 3135 3134 3132 3131 3130 3129 3128 3129 3129 3131 3130 3131 3133 3133 3135 3136 3138 3139 3139 3140 3141 3141 3141 3141 3142 3143 3142
3137 3138 3139 3139 3139 3140 3140 3139 3139 3138 3138 3138 3138 3138 3137 3136 3135 3133 3133 3132 3131 3131 3130 3129 3128 3128 3128 3129 3129 3129 3130 3132 3134 3134 3135 3136 3137 3138 3139 3140 3140 3139 3138 3137 3137
3132 3133 3134 3135 3135 3135 3136 3135 3134 3135 3135 3135 3135 3135 3134 3133 3133 3131 3130 3130 3129 3128 3129 3128 3127 3127 3127 3127 3128 3127 3128 3130 3131 3131 3131 3132 3134 3135 3135 3136 3137 3136 3133 3129 3128
3126 3128 3129 3130 3130 3131 3131 3130 3130 3130 3131 3131 3131 3131 3131 3131 3134 3128 3128 3128 3127 3127 3127 3127 3126 3127 3126 3125 3126 3127 3127 3128 3130 3131 3131 3130 3130 3130 3129 3132 3132 3131 3126 3124 3123
3120 3121 3124 3125 3125 3126 3126 3125 3125 3125 3126 3127 3127 3127 3128 3127 3128 3126 3125 3126 3125 3125 3124 3124 3125 3124 3124 3124 3123 3123 3125 3126 3127 3128 3127 3127 3127 3126 3127 3129 3127 3122 3121 3120 3118
3113 3116 3117 3118 3119 3120 3120 3119 3120 3120 3121 3121 3121 3122 3122 3123 3124 3122 3122 3122 3122 3122 3123 3123 3123 3122 3122 3122 3121 3121 3122 3124 3125 3125 3123 3123 3124 3123 3125 3122 3118 3117 3117 3117 3116
3107 3109 3110 3112 3113 3113 3114 3113 3113 3115 3117 3116 3116 3115 3117 3120 3119 3119 3119 3119 3119 3119 3120 3121 3122 3121 3120 3119 3117 3117 3119 3120 3121 3120 3120 3119 3120 3120 3119 3117 3116 3115 3115 3115 3115
3099 3102 3103 3105 3108 3108 3107 3107 3107 3110 3111 3112 3112 3111 3111 3114 3114 3116 3116 3116 3115 3116 3117 3117 3118 3118 3117 3116 3115 3114 3115 3116 3118 3118 3118 3119 3119 3117 3114 3114 3113 3113 3112 3112 3111
3091 3094 3096 3099 3102 3103 3103 3102 3104 3104 3107 3107 3108 3107 3108 3109 3108 3110 3112 3112 3112 3113 3113 3114 3115 3114 3113 3112 3113 3109 3110 3111 3114 3113 3114 3115 3114 3113 3112 3111 3111 3110 3110 3110 3109
3083 3086 3089 3091 3095 3097 3098 3098 3098 3100 3103 3103 3104 3106 3105 3106 3105 3105 3107 3109 3110 3109 3109 3109 3110 3111 3108 3110 3109 3107 3106 3107 3110 3112 3109 3109 3109 3108 3108 3107 3106 3106 3106 3105 3104
3074 3078 3082 3085 3087 3091 3092 3093 3096 3097 3095 3100 3098 3097 3099 3100 3100 3101 3103 3105 3104 3106 3104 3104 3105 3106 3107 3106 3105 3104 3103 3103 3106 3109 3104 3106 3104 3102 3102 3101 3101 3101 3100 3099 3098
3066 3068 3074 3077 3078 3081 3083 3085 3089 3089 3084 3087 3086 3087 3091 3094 3096 3098 3099 3101 3099 3100 3100 3100 3099 3103 3102 3101 3102 3102 3100 3100 3101 3104 3102 3101 3099 3097 3096 3096 3096 3095 3095 3093 3091
3057 3061 3065 3068 3070 3072 3075 3081 3082 3081 3078 3077 3079 3079 3084 3086 3085 3090 3092 3092 3093 3094 3094 3094 3099 3098 3098 3097 3099 3098 3098 3099 3099 3098 3099 3096 3090 3091 3091 3090 3090 3090 3089 3087 3084
3050 3053 3056 3061 3063 3067 3069 3074 3077 3080 3078 3068 3072 3068 3074 3076 3074 3082 3083 3088 3086 3087 3090 3089 3091 3092 3094 3095 3097 3096 3098 3097 3096 3095 3095 3095 3087 3084 3085 3085 3086 3084 3083 3082 3080
3043 3045 3050 3053 3055 3064 3070 3068 3074 3080 3081 3066 3064 3064 3066 3071 3069 3073 3074 3076 3078 3082 3086 3087 3087 3088 3090 3092 3093 3095 3096 3096 3094 3093 3091 3091 3092 3074 3079 3080 3080 3080 3079 3077 3075
3035 3039 3042 3046 3050 3057 3061 3064 3070 3080 3067 3060 3059 3061 3062 3064 3066 3068 3070 3071 3076 3079 3080 3081 3083 3086 3088 3089 3091 3093 3094 3094 3093 3092 3087 3085 3088 3071 3074 3076 3076 3076 3074 3072 3070
3029 3033 3037 3039 3046 3051 3055 3061 3069 3065 3059 3059 3057 3060 3061 3062 3064 3065 3066 3069 3073 3076 3077 3078 3077 3079 3083 3085 3087 3088 3090 3091 3091 3089 3084 3081 3081 3073 3072 3071 3073 3071 3070 3067 3064
3022 3027 3031 3036 3040 3044 3051 3056 3056 3048 3052 3055 3055 3057 3059 3060 3062 3065 3066 3067 3070 3072 3074 3076 3075 3074 3077 3080 3082 3082 3084 3086 3085 3085 3080 3079 3071 3067 3068 3067 3066 3065 3063 3062 3061
3015 3020 3025 3030 3035 3040 3046 3047 3043 3044 3047 3052 3054 3054 3056 3058 3062 3063 3064 3065 3066 3069 3073 3072 3073 3073 3073 3076 3080 3080 3080 3081 3080 3078 3077 3070 3067 3064 3064 3062 3061 3060 3058 3057 3056
3004 3010 3017 3025 3030 3033 3037 3038 3037 3041 3045 3047 3049 3052 3052 3054 3058 3061 3062 3063 3064 3064 3067 3068 3071 3072 3072 3074 3075 3076 3076 3077 3078 3078 3074 3064 3062 3057 3058 3058 3058 3057 3055 3053 3051
2997 3001 3008 3016 3023 3023 3027 3030 3032 3036 3042 3046 3046 3048 3049 3051 3054 3057 3059 3062 3064 3062 3063 3064 3068 3069 3070 3070 3070 3072 3070 3071 3073 3072 3070 3065 3055 3054 3055 3054 3052 3051 3050 3047 3046
2987 2992 2998 3006 3012 3013 3019 3023 3027 3030 3035 3040 3043 3044 3047 3049 3050 3053 3055 3059 3059 3061 3062 3062 3062 3062 3065 3065 3065 3067 3066 3067 3067 3066 3063 3062 3049 3046 3048 3047 3047 3047 3044 3043 3041
2980 2984 2989 2998 2998 3004 3009 3013 3021 3024 3028 3034 3038 3042 3044 3046 3050 3050 3049 3052 3056 3058 3058 3060 3059 3059 3060 3063 3060 3059 3059 3060 3061 3061 3053 3059 3041 3043 3042 3043 3043 3041 3040 3038 3035
2974 2978 2982 2986 2993 2998 3003 3006 3012 3018 3022 3028 3031 3037 3040 3042 3046 3046 3047 3049 3050 3052 3054 3054 3055 3056 3054 3055 3055 3054 3053 3055 3057 3055 3048 3036 3033 3035 3036 3037 3036 3035 3034 3032 3031
2963 2964 2970 2973 2982 2988 2994 3000 3005 3011 3017 3021 3025 3029 3035 3039 3041 3042 3043 3045 3047 3048 3050 3050 3049 3051 3051 3050 3051 3048 3047 3049 3048 3042 3043 3025 3028 3023 3027 3028 3028 3027 3027 3027 3026
2952 2958 2963 2971 2976 2983 2988 2991 2998 3006 3011 3013 3020 3025 3030 3033 3036 3038 3040 3042 3043 3044 3045 3046 3045 3045 3045 3047 3045 3041 3039 3040 3035 3032 3027 3025 3018 3021 3021 3019 3018 3019 3020 3021 3020
2943 2952 2958 2964 2969 2976 2979 2984 2991 3000 3004 3010 3015 3020 3024 3029 3032 3034 3035 3036 3037 3040 3041 3042 3040 3040 3039 3042 3040 3033 3031 3029 3026 3024 3022 3019 3016 3015 3014 3013 3012 3013 3014 3014 3015
Wind_Speed
24 24 23 22 22 22 21 21 21 20 18 18 17 16 16 15 15 12 9 7 6 5 5 5 6 7 8 8 9 9 9 8 8 5 6 12 11 10 11 10 8 11 13 15 17
27 26 26 25 25 25 25 24 24 24 22 21 20 18 16 16 15 14 11 9 8 7 6 5 4 5 5 6 8 10 10 6 7 6 10 13 15 14 14 13 12 13 16 18 19
30 29 28 28 28 28 27 28 27 26 25 23 21 21 19 19 17 15 13 11 9 8 8 8 7 6 6 5 8 10 12 11 10 12 14 14 16 17 19 18 16 17 21 24 27
32 32 32 31 30 30 30 31 31 28 28 25 23 21 19 19 12 8 14 11 10 9 10 10 9 7 6 8 10 11 11 12 11 12 14 16 17 18 20 16 17 20 22 25 26
36 34 34 34 33 32 32 32 32 32 30 29 26 23 22 18 15 15 15 15 13 12 10 8 9 9 7 7 10 12 11 13 13 11 14 17 18 23 17 16 23 27 27 26 25
37 36 36 35 35 34 34 34 34 34 30 28 27 25 24 18 16 14 13 12 10 11 9 9 8 9 12 11 12 13 14 12 12 13 15 16 17 19 17 18 22 24 22 22 25
38 37 37 35 36 35 36 36 35 33 27 25 23 19 19 13 16 15 15 14 13 12 11 11 11 11 12 12 14 13 15 12 13 13 8 11 4 6 11 19 21 22 22 23 20
38 38 38 33 33 32 33 35 33 31 27 25 20 17 17 18 17 14 14 15 16 15 13 16 14 13 15 16 16 17 16 10 5 6 7 6 4 3 6 12 16 21 21 19 20
36 35 30 33 31 25 31 32 31 28 27 21 21 21 21 18 17 16 17 19 18 16 15 18 17 17 19 17 17 15 10 11 9 11 12 6 9 13 13 14 15 17 20 22 26
38 42 38 36 32 32 30 24 27 26 22 25 26 26 23 19 13 10 10 13 18 17 22 23 18 17 21 15 14 8 10 13 11 10 14 15 16 17 19 21 23 24 26 29 29
35 35 36 34 33 30 35 38 34 35 35 37 27 28 17 15 11 17 15 20 22 25 23 22 19 20 11 12 15 18 18 18 15 9 21 20 20 21 22 22 22 25 28 29 30
38 34 34 34 33 35 42 42 41 41 46 42 39 39 33 30 24 24 26 26 25 26 24 24 23 16 16 17 15 16 17 17 16 11 19 18 22 25 28 29 29 27 27 31 31
35 33 34 33 32 35 35 36 35 34 36 37 33 35 30 33 34 29 32 29 30 29 27 27 18 11 9 13 15 17 17 15 19 18 19 22 31 29 27 21 18 26 33 31 30
34 34 35 32 34 33 30 28 28 26 22 34 31 31 30 33 38 26 31 32 36 32 25 20 16 20 21 21 21 21 17 17 15 15 11 11 11 27 26 27 26 25 26 26 34
35 35 32 32 33 29 24 25 20 15 5 8 15 18 18 22 25 19 25 29 34 31 23 11 10 9 8 9 9 12 9 9 13 16 20 15 10 19 14 21 22 22 25 26 24
33 32 31 33 32 26 24 21 19 11 9 7 9 13 15 18 19 16 17 22 18 23 22 25 21 14 12 9 8 12 15 19 20 20 10 17 15 19 9 11 18 20 19 23 27
31 31 30 28 27 24 24 22 16 11 10 8 12 14 14 16 19 16 17 18 14 14 19 23 25 24 22 22 20 21 18 4 4 2 6 10 10 24 24 28 22 20 24 29 23
32 30 29 26 23 23 26 33 12 15 27 5 10 12 17 17 22 17 16 18 18 18 13 7 4 4 9 13 10 9 12 8 5 3 6 15 9 16 24 25 28 29 24 20 18
35 33 31 28 24 22 31 35 23 29 13 24 6 14 18 20 14 21 20 20 20 18 12 6 4 8 8 7 7 5 8 10 14 18 6 12 20 31 33 26 23 22 24 20 26
39 37 36 31 26 32 37 33 35 35 13 16 26 13 16 22 21 14 13 10 23 24 16 10 8 12 11 11 13 15 13 6 5 2 5 12 24 28 32 24 22 20 18 27 24
39 39 41 38 37 34 41 44 43 37 32 14 20 16 14 14 19 20 13 17 14 14 16 20 15 9 13 13 15 13 17 14 12 10 3 7 17 24 29 26 24 23 28 23 24
36 41 46 42 43 45 44 49 44 40 35 26 22 20 13 13 11 15 25 21 11 21 18 20 10 17 20 19 19 20 21 20 13 10 20 15 30 34 38 34 28 21 24 25 29
37 42 41 42 37 47 48 47 50 45 36 31 32 23 17 18 10 12 15 17 23 21 16 21 16 12 11 14 18 22 25 25 25 26 35 8 24 27 29 21 27 27 26 29 25
38 38 38 36 51 46 49 55 49 45 29 34 33 31 33 29 29 16 16 11 13 20 24 24 23 24 20 15 13 15 20 19 19 20 33 41 47 45 41 38 33 31 28 25 23
48 30 36 38 51 55 45 45 50 42 43 39 33 26 21 26 27 24 22 18 19 19 23 25 21 21 23 22 25 26 27 25 29 40 33 51 41 48 44 42 38 32 32 27 25
52 35 43 40 44 51 45 51 49 46 43 37 27 26 27 31 26 23 21 21 23 19 19 19 21 23 25 25 24 29 29 31 39 40 44 44 47 37 30 27 24 25 25 24 22
48 55 32 46 40 44 56 55 53 48 39 40 28 28 27 23 21 22 22 20 22 21 20 24 27 16 17 19 17 29 29 26 25 23 21 24 25 23 23 20 16 16 20 22 19
Wind_Direction
254 258 261 266 270 274 278 282 284 285 287 288 290 297 305 302 295 291 281 289 304 312 304 286 271 261 251 241 227 231 235 246 261 274 242 222 228 233 216 240 263 264 265 270 275
254 257 260 264 269 273 277 279 283 285 286 289 291 296 298 300 290 280 268 270 273 288 292 293 291 274 262 246 235 228 237 249 238 248 245 242 252 254 261 261 270 282 284 277 270
256 258 260 263 267 272 276 280 281 284 286 288 289 290 294 298 289 276 259 255 263 278 286 285 277 273 267 256 252 247 245 246 238 251 260 273 272 270 275 277 291 292 284 283 278
254 256 260 263 266 270 274 277 280 281 283 284 285 284 287 289 291 271 248 261 275 291 282 284 286 276 258 254 259 263 273 273 278 279 274 275 276 277 276 295 297 299 283 286 281
254 255 258 262 265 269 272 275 278 281 283 285 281 277 277 280 274 269 263 266 284 291 288 273 275 283 281 269 264 263 257 266 276 283 283 279 276 280 279 291 291 278 273 270 273
254 257 259 262 265 267 271 273 277 281 283 285 284 273 271 267 268 265 254 257 282 281 271 275 273 273 278 276 269 274 276 275 284 284 279 277 275 272 277 279 264 264 266 261 272
257 258 260 264 264 270 268 272 271 278 283 293 283 265 256 259 267 265 244 250 265 260 271 280 282 279 279 277 271 272 274 274 280 267 264 267 262 252 250 248 256 261 264 265 271
256 259 260 262 264 267 266 268 270 271 276 273 264 257 261 266 263 252 243 249 250 244 268 284 288 279 268 269 268 278 287 295 200 223 253 267 209 282 257 240 250 253 259 268 286
252 253 258 258 256 267 261 265 255 250 263 259 239 261 276 268 253 243 251 240 236 237 278 296 286 276 273 267 272 272 267 270 257 252 231 263 264 272 279 274 267 269 263 269 283
264 258 268 259 264 261 252 245 243 250 254 261 269 270 265 246 233 233 233 255 236 243 284 294 283 274 271 271 267 266 264 263 256 244 255 269 272 282 280 271 272 279 281 284 286
260 262 258 249 247 243 246 248 253 264 251 266 261 268 254 238 205 199 237 243 243 256 277 286 272 274 286 263 252 259 268 275 279 273 286 278 281 279 288 288 290 291 289 285 285
248 243 246 247 246 238 238 244 254 261 265 264 260 248 250 252 236 242 255 259 260 265 271 276 273 273 252 256 263 262 265 274 287 279 293 296 282 282 286 289 291 291 291 293 290
242 241 242 242 243 242 239 246 250 257 261 258 257 258 249 251 255 254 257 260 262 266 267 275 268 268 265 247 258 257 261 282 294 301 295 293 285 283 286 283 278 284 289 288 290
239 239 239 238 238 240 240 244 246 246 268 270 263 267 254 253 255 252 251 250 255 261 266 273 275 261 257 255 259 269 264 289 294 296 290 293 289 287 278 270 278 282 286 289 295
234 235 235 236 241 241 242 238 235 241 286 257 230 237 232 233 241 238 240 238 244 247 247 252 271 253 249 271 261 274 283 306 292 283 288 272 269 291 283 277 279 287 289 291 293
233 233 230 234 236 232 226 215 205 190 245 234 215 224 219 214 221 222 226 218 227 231 244 246 248 246 247 247 253 269 285 293 288 281 269 276 240 291 294 311 302 299 287 290 297
233 232 230 229 234 225 217 194 172 211 236 239 226 215 217 217 211 210 211 208 203 212 245 257 258 260 255 256 256 265 270 291 288 230 242 281 246 263 291 291 292 294 296 302 301
228 226 227 223 218 210 196 179 203 233 221 207 220 213 225 217 214 212 210 221 231 238 252 265 268 206 246 239 243 256 238 204 234 219 263 287 251 282 289 297 297 301 304 306 306
224 222 222 216 205 206 191 186 219 230 243 219 221 212 219 222 224 228 234 243 246 250 235 225 237 202 203 214 229 231 243 274 258 274 287 271 273 282 291 298 298 297 300 303 316
217 215 219 212 200 193 194 202 220 223 215 208 223 221 221 220 220 221 229 249 244 248 241 250 251 226 220 228 250 260 270 241 227 275 260 272 290 281 291 291 286 289 288 308 309
215 209 214 207 197 204 205 217 224 224 220 213 219 222 225 215 221 227 237 244 248 244 235 237 242 243 221 248 264 257 255 250 258 242 225 284 278 281 288 288 293 289 302 302 303
210 209 214 197 199 205 210 212 214 226 226 224 222 213 207 204 213 227 238 239 242 245 258 245 241 248 254 260 265 268 266 260 235 256 260 265 267 281 288 289 287 297 300 300 304
205 213 212 204 196 206 210 214 220 228 229 228 230 218 228 240 239 245 246 245 247 251 257 252 236 247 261 257 248 254 262 262 262 264 266 253 270 287 290 286 290 298 297 299 297
200 206 210 207 208 208 217 221 223 227 229 230 233 234 240 246 256 255 256 255 253 249 246 244 242 247 240 250 268 255 265 266 266 264 273 266 277 284 284 285 286 292 295 297 297
202 206 212 200 205 210 215 221 223 224 233 236 234 232 239 238 244 250 261 264 267 261 253 239 245 254 254 266 275 272 273 274 273 280 256 281 275 288 290 292 290 280 283 292 293
206 205 207 212 216 210 212 221 223 226 228 233 228 238 244 242 245 255 263 271 270 264 253 241 248 258 274 278 275 279 281 285 287 280 273 275 281 293 297 295 290 278 278 283 286
207 207 207 216 212 212 219 221 224 226 235 238 239 240 239 245 250 252 260 264 262 255 252 256 253 268 267 277 284 284 290 293 286 285 288 285 303 303 302 297 300 282 272 272 274